This demonstration page uses our WeatherBlox Daily Observations layout. Learn more.

Left ArrowRight Arrow

38.89511, -77.03637

Hourly Observations for December 18, 2020

Temp ( °F °C ) Dew Point ( °F °C ) Humidity (%) Winds ( mph kmh ) Pressure ( in mb ) Visibility ( mi km ) Precip ( " mm )
12:52 am 00:52 Cloudy 35 1.7 27 -2.8 72 72 N 5 7 30.19 1022 10 16 0.00 0.00
1:52 am 01:52 Cloudy 35 1.7 26 -3.3 70 70 N 7 11 30.19 1022 10 16 0.00 0.00
2:52 am 02:52 Cloudy with Light Snow 35 1.7 26 -3.3 70 70 NNE 7 11 30.22 1023 9 14 0.00 0.00
3:52 am 03:52 Cloudy with Light Snow 34 1.1 27 -2.8 76 76 NNW 9 15 30.23 1024 8 13 0.00 0.00
4:52 am 04:52 Cloudy with Light Snow 33 0.6 28 -2.2 82 82 N 8 13 30.24 1024 9 14 0.00 0.00
5:52 am 05:52 Cloudy with Light Snow 33 0.6 27 -2.8 78 78 N 9 15 30.26 1025 9 14 0.00 0.00
6:52 am 06:52 Cloudy 33 0.6 26 -3.3 75 75 N 10 17 30.28 1025 10 16 0.00 0.00
7:30 am 07:30 Cloudy 33 0.6 27 -2.8 78 78 NNW 8 13 30.30 1026 10 16 0.00 0.00
7:52 am 07:52 Cloudy 33 0.6 27 -2.8 78 78 N 8 13 30.30 1026 10 16 0.00 0.00
8:25 am 08:25 Cloudy 33 0.6 26 -3.3 75 75 NNW 8 13 30.31 1027 10 16 0.00 0.00
8:52 am 08:52 Cloudy 34 1.1 26 -3.3 73 73 N 7 11 30.32 1027 10 16 0.00 0.00
9:52 am 09:52 Cloudy 35 1.7 27 -2.8 72 72 N 7 11 30.35 1028 10 16 0.00 0.00
10:52 am 10:52 Cloudy 35 1.7 26 -3.3 70 70 N 5 7 30.37 1028 10 16 0.00 0.00
11:52 am 11:52 Cloudy 35 1.7 25 -3.9 67 67 VRB 3 6 30.36 1028 10 16 0.00 0.00
12:52 pm 12:52 Cloudy 37 2.8 27 -2.8 67 67 N 5 7 30.35 1028 10 16 0.00 0.00
1:52 pm 13:52 Cloudy 37 2.8 27 -2.8 67 67 VRB 3 6 30.35 1028 10 16 0.00 0.00
2:52 pm 14:52 Mostly Cloudy 39 3.9 29 -1.7 67 67 WNW 5 7 30.35 1028 10 16 0.00 0.00
3:52 pm 15:52 Cloudy 38 3.3 29 -1.7 70 70 N 7 11 30.36 1028 10 16 0.00 0.00
4:52 pm 16:52 Cloudy 38 3.3 29 -1.7 70 70 NNW 8 13 30.38 1029 10 16 0.00 0.00
5:52 pm 17:52 Cloudy 37 2.8 29 -1.7 73 73 NNW 8 13 30.40 1029 10 16 0.00 0.00
6:52 pm 18:52 Cloudy 37 2.8 29 -1.7 73 73 NNW 7 11 30.41 1030 10 16 0.00 0.00
7:52 pm 19:52 Cloudy 36 2.2 26 -3.3 67 67 N 9 15 30.42 1030 10 16 0.00 0.00
8:52 pm 20:52 Partly Cloudy 34 1.1 25 -3.9 70 70 N 9 15 30.42 1030 10 16 0.00 0.00
9:52 pm 21:52 Partly Cloudy 32 0 24 -4.4 73 73 NNW 7 11 30.43 1030 10 16 0.00 0.00
10:52 pm 22:52 Partly Cloudy 31 -0.6 23 -5 72 72 N 9 15 30.43 1031 10 16 0.00 0.00
11:52 pm 23:52 Partly Cloudy 32 0 23 -5 69 69 NNE 7 11 30.43 1031 10 16 0.00 0.00

Powered by AerisWeather